Retour au catalogue

COSMOS 1110

ActifNavigationLEO
NORAD 11425·PAYLOAD·🇷🇺 Russia

Lancé Jun 28, 1979 depuis Plesetsk Cosmodrome

Loading…

Prochains Passages (prochaines 24 heures)

TLE

FraisSource: Space-Track

Époque: Sep 14, 2026, 21:23 UTC

1 11425U 79060A   26257.89138299  .00000068  00000-0  33597-4 0  9991
2 11425  74.0118  83.9744 0013140 129.9542 230.2766 14.34260705467243

Suivez COSMOS 1110 en temps réel avec AllMySat

Download on the App Store